Location: Newark
(45.0333°N, 18.2865°E)
Time: 15:40:34
(UTC+00:00)

Nauka - Visible Passes

Search period start: 20 September 2021 00:00
Search period end: 30 September 2021 00:00
Orbit: 419 x 423 km, 51.6° (Epoch: 19 September)

Date Brightness Start Highest point End Pass type
(mag) Time Alt. Az. Time Alt. Az. Time Alt. Az.
20 Sep ? 17:19:20 10° SW 17:22:41 70° SSE 17:26:03 10° ENE visible
20 Sep ? 18:56:40 10° W 18:59:44 32° NNW 18:59:51 32° N visible
21 Sep ? 18:09:33 10° W 18:12:45 39° NNW 18:14:52 18° NE visible
21 Sep ? 19:47:17 10° WNW 19:47:52 13° NW 19:47:52 13° NW visible
22 Sep ? 17:22:28 10° WSW 17:25:45 52° NNW 17:29:04 10° NE visible
22 Sep ? 19:00:12 10° WNW 19:02:48 25° NNW 19:02:48 25° NNW visible
23 Sep ? 18:13:05 10° WNW 18:16:03 27° N 18:17:42 19° NE visible
23 Sep ? 19:50:30 10° NW 19:50:41 11° NW 19:50:41 11° NW visible
24 Sep ? 17:25:55 10° WNW 17:29:00 31° NNW 17:32:04 10° NE visible
24 Sep ? 19:03:32 10° NW 19:05:32 23° NNW 19:05:32 23° NNW visible
25 Sep ? 18:16:31 10° WNW 18:19:25 25° N 18:20:22 22° NNE visible
26 Sep ? 17:29:26 10° WNW 17:32:20 26° N 17:35:11 10° NE visible
26 Sep ? 19:06:37 10° NW 19:08:11 22° NW 19:08:11 22° NW visible
27 Sep ? 18:19:41 10° NW 18:22:45 30° NNE 18:23:00 30° NNE visible
28 Sep ? 17:32:43 10° NW 17:35:41 27° N 17:37:50 15° ENE visible
28 Sep ? 19:09:33 10° WNW 19:10:49 21° NW 19:10:49 21° NW visible
29 Sep ? 18:22:40 10° NW 18:25:41 47° N 18:25:41 47° N visible
